Florence, Italy

11:42 PM CEST on May 22, 2017 (GMT +0200)
Peretola

Weather History for LIRQ - April, 2013

Change the Weather History Date:

Wednesday, April 24, 2013

  Actual Average Record
Temperature  
Mean Temperature 60 °F -  
Max Temperature 78 °F 72 °F 80 °F (2006)
Min Temperature 42 °F 51 °F 37 °F (1997)
Degree Days  
Heating Degree Days 5    
Growing Degree Days 10 (Base 50)    
Moisture  
Dew Point 46 °F    
Average Humidity 63    
Maximum Humidity 93    
Minimum Humidity 29    
Precipitation  
Precipitation 0.00 in 0.10 in - ()
Sea Level Pressure  
Sea Level Pressure 30.32 in    
Wind  
Wind Speed 3 mph ()    
Max Wind Speed 12 mph    
Max Gust Speed -    
Visibility 6.2 miles    
Events      
Averages and records for this station are not official NWS values.
T = Trace of Precipitation, MM = Missing Value Source: Averaged Metar Reports

Daily Weather History Graph

Daily Weather History Graph

Search for Another Location

Airport or City:

Trip Planner

Search our weather history database for the weather conditions in past years. The results will help you decide how hot, cold, wet, or windy it might be!

Date:

Astronomy

Apr. 24, 2013 Rise Set
Actual Time 6:17 AM CEST 8:09 PM CEST
Civil Twilight 5:46 AM CEST 8:40 PM CEST
Nautical Twilight 5:09 AM CEST 9:18 PM CEST
Astronomical Twilight 4:28 AM CEST 9:59 PM CEST
Moon 6:52 PM CEST (4/24) 5:14 AM CEST (4/24)
Length of Visible Light 14h 53m
Length of Day
13h 51m
Waxing Gibbous, 97% of the Moon is Illuminated
Apr 24
Waxing Gibbous
Apr 25
Full
May 2
Last Quarter
May 10
New
May 18
First Quarter

Hourly Weather History & Observations

Time (CEST) Temp. Windchill Dew Point Humidity Pressure Visibility Wind Dir Wind Speed Gust Speed Precip Events Conditions
12:20 AM 46.4 °F - 41.0 °F 81% 30.30 in - Variable 2.3 mph - N/A   Clear
12:50 AM 48.2 °F - 44.6 °F 87% 30.30 in - Variable 2.3 mph - N/A   Clear
1:20 AM 50.0 °F - 44.6 °F 82% 30.30 in - Variable 2.3 mph - N/A   Clear
1:50 AM 48.2 °F - 44.6 °F 87% 30.30 in - Variable 2.3 mph - N/A   Clear
2:20 AM 46.4 °F - 42.8 °F 87% 30.30 in - Variable 1.2 mph - N/A   Clear
2:50 AM 44.6 °F - 41.0 °F 87% 30.30 in - Variable 1.2 mph - N/A   Clear
3:20 AM 46.4 °F - 42.8 °F 87% 30.33 in - Calm Calm - N/A   Clear
3:50 AM 44.6 °F - 42.8 °F 93% 30.33 in - Variable 1.2 mph - N/A   Clear
4:20 AM 42.8 °F - 41.0 °F 93% 30.33 in - Variable 2.3 mph - N/A   Clear
4:50 AM 42.8 °F - 41.0 °F 93% 30.33 in - Variable 2.3 mph - N/A   Clear
5:20 AM 44.6 °F - 42.8 °F 93% 30.33 in - Variable 2.3 mph - N/A   Clear
5:50 AM 42.8 °F 41.1 °F 41.0 °F 93% 30.33 in - ESE 3.5 mph - N/A   Clear
6:20 AM 42.8 °F 41.1 °F 41.0 °F 93% 30.33 in - NE 3.5 mph - N/A   Clear
6:50 AM 44.6 °F 43.1 °F 42.8 °F 93% 30.33 in - East 3.5 mph - N/A   Clear
7:20 AM 46.4 °F - 44.6 °F 93% 30.33 in - Variable 2.3 mph - N/A   Clear
7:50 AM 50.0 °F - 46.4 °F 87% 30.33 in - NE 2.3 mph - N/A   Clear
8:20 AM 53.6 °F - 46.4 °F 77% 30.36 in - Variable 1.2 mph - N/A   Clear
8:50 AM 57.2 °F - 48.2 °F 72% 30.36 in - Calm Calm - N/A   Clear
9:20 AM 59.0 °F - 50.0 °F 72% 30.36 in - Calm Calm - N/A   Clear
9:50 AM 60.8 °F - 48.2 °F 63% 30.36 in - Variable 1.2 mph - N/A   Clear
10:20 AM 64.4 °F - 48.2 °F 56% 30.36 in - Calm Calm - N/A   Clear
10:50 AM 66.2 °F - 48.2 °F 52% 30.36 in - Variable 2.3 mph - N/A   Clear
11:20 AM 69.8 °F - 46.4 °F 43% 30.36 in - Variable 2.3 mph - N/A   Clear
11:50 AM 69.8 °F - 46.4 °F 43% 30.36 in - Variable 2.3 mph - N/A   Clear
12:20 PM 71.6 °F - 42.8 °F 35% 30.36 in - Variable 1.2 mph - N/A   Clear
12:50 PM 73.4 °F - 42.8 °F 33% 30.36 in - Variable 2.3 mph - N/A   Clear
1:20 PM 73.4 °F - 42.8 °F 33% 30.33 in - NW 4.6 mph - N/A   Clear
1:50 PM 75.2 °F - 42.8 °F 31% 30.33 in - Variable 2.3 mph - N/A   Clear
2:20 PM 77.0 °F - 42.8 °F 29% 30.33 in - Variable 3.5 mph - N/A   Clear
2:50 PM 75.2 °F - 46.4 °F 36% 30.33 in - Variable 3.5 mph - N/A   Clear
3:20 PM 75.2 °F - 42.8 °F 31% 30.30 in 6.2 mi Variable 3.5 mph - N/A   Partly Cloudy
3:50 PM 78.8 °F - 46.4 °F 32% 30.30 in 6.2 mi West 3.5 mph - N/A   Partly Cloudy
4:20 PM 75.2 °F - 46.4 °F 36% 30.30 in 6.2 mi NE 6.9 mph - N/A   Partly Cloudy
4:50 PM 75.2 °F - 48.2 °F 38% 30.27 in 6.2 mi NNE 9.2 mph - N/A   Partly Cloudy
5:20 PM 75.2 °F - 50.0 °F 41% 30.27 in 6.2 mi NNE 11.5 mph - N/A   Partly Cloudy
5:50 PM 73.4 °F - 50.0 °F 44% 30.27 in - NNE 10.4 mph - N/A   Clear
6:20 PM 73.4 °F - 50.0 °F 44% 30.27 in - NNE 10.4 mph - N/A   Clear
6:50 PM 71.6 °F - 50.0 °F 46% 30.27 in - North 8.1 mph - N/A   Clear
7:20 PM 71.6 °F - 50.0 °F 46% 30.27 in - North 5.8 mph - N/A   Clear
7:50 PM 69.8 °F - 51.8 °F 53% 30.27 in - NNW 3.5 mph - N/A   Clear
8:20 PM 68.0 °F - 50.0 °F 52% 30.27 in - Variable 2.3 mph - N/A   Clear
8:50 PM 66.2 °F - 50.0 °F 56% 30.27 in - Variable 2.3 mph - N/A   Clear
9:20 PM 66.2 °F - 51.8 °F 60% 30.30 in - South 3.5 mph - N/A   Clear
9:50 PM 64.4 °F - 51.8 °F 64% 30.30 in - South 3.5 mph - N/A   Clear
10:20 PM 64.4 °F - 51.8 °F 64% 30.30 in - Variable 2.3 mph - N/A   Clear
10:50 PM 62.6 °F - 51.8 °F 68% 30.30 in - SW 3.5 mph - N/A   Clear
11:20 PM 62.6 °F - 51.8 °F 68% 30.30 in - South 3.5 mph - N/A   Clear
11:50 PM 59.0 °F - 50.0 °F 72% 30.30 in - Variable 3.5 mph - N/A   Clear